Weather observations for the past three days for
Fond Du Lac County Airport
| Date | Time (cdt) | Wind (mph) | Vis. (mi.) | Weather | Sky Cond. | Temperature (ºF) | Relative Humidity | Wind Chill (°F) | Heat Index (°F) | Pressure | Precipitation (in) | ||||||
|---|---|---|---|---|---|---|---|---|---|---|---|---|---|---|---|---|---|
| Air | Dwpt | 6 hour | altimeter (in) | sea level (mb) | 1 hr | 3 hr | 6 hr | ||||||||||
| Max. | Min. | ||||||||||||||||
| 10 | 10:53 | W 16 G 23 | 10.00 | Fair | CLR | 57 | 28 | 33% | 30.06 | 1018.2 | |||||||
| 10 | 09:53 | W 13 G 21 | 10.00 | A Few Clouds | FEW100 | 55 | 30 | 38% | 30.06 | 1018.1 | |||||||
| 10 | 08:53 | SW 8 | 10.00 | Fair | CLR | 51.1 | 28.9 | 43% | 30.05 | 1017.9 | |||||||
| 10 | 07:53 | SW 8 | 10.00 | Fair | CLR | 46.9 | 34 | 61% | 44 | 30.05 | 1018.0 | ||||||
| 10 | 06:53 | SW 6 | 10.00 | Fair | CLR | 41 | 32 | 42.1 | 30 | 70% | 38 | 30.05 | 1017.9 | ||||
| 10 | 05:53 | SW 6 | 10.00 | Fair | CLR | 37 | 30 | 76% | 33 | 30.03 | 1017.3 | ||||||
| 10 | 04:53 | SW 7 | 10.00 | Fair | CLR | 37 | 30 | 76% | 32 | 30.01 | 1016.6 | ||||||
| 10 | 03:53 | S 5 | 10.00 | Fair | CLR | 30 | 28 | 92% | 26 | 29.99 | 1015.9 | ||||||
| 10 | 02:53 | SW 5 | 10.00 | Fair | CLR | 34 | 30 | 85% | 30 | 29.96 | 1015.1 | ||||||
| 10 | 01:53 | Calm | 10.00 | Fair | CLR | 36 | 30 | 79% | 29.95 | 1014.5 | |||||||
| 10 | 00:53 | Calm | 10.00 | Fair | CLR | 41 | 28.9 | 59 | 39.9 | 62% | 29.93 | 1013.9 | |||||
| 09 | 23:53 | E 6 | 10.00 | Fair | CLR | 45 | 24.1 | 44% | 42 | 29.91 | 1013.2 | ||||||
| 09 | 22:53 | NE 12 | 10.00 | Fair | CLR | 48 | 30 | 50% | 44 | 29.9 | 1012.7 | ||||||
| 09 | 21:53 | N 8 | 10.00 | Fair | CLR | 48.9 | 26.1 | 41% | 46 | 29.87 | 1011.8 | ||||||
| 09 | 20:53 | NW 8 | 10.00 | Fair | CLR | 50 | 25 | 38% | 47 | 29.82 | 1010.1 | ||||||
| 09 | 19:53 | NW 10 | 10.00 | Fair | CLR | 55 | 25 | 31% | 29.78 | 1008.6 | |||||||
| 09 | 18:53 | NW 17 | 10.00 | Fair | CLR | 59 | 24.1 | 63 | 59 | 26% | 29.75 | 1007.6 | |||||
| 09 | 17:53 | NW 17 G 26 | 10.00 | A Few Clouds | FEW080 | 60.1 | 28.9 | 31% | 29.73 | 1006.7 | |||||||
| 09 | 16:53 | NW 16 G 28 | 10.00 | A Few Clouds | FEW080 | 62.1 | 30 | 30% | 29.71 | 1005.9 | |||||||
| 09 | 15:53 | NW 15 G 28 | 10.00 | Mostly Cloudy | BKN080 BKN095 | 61 | 33.1 | 35% | 29.69 | 1005.3 | |||||||
| 09 | 14:53 | NW 21 G 29 | 10.00 | Mostly Cloudy and Breezy | BKN065 BKN080 | 59 | 34 | 39% | 29.67 | 1004.6 | |||||||
| 09 | 13:53 | W 17 G 32 | 10.00 | Mostly Cloudy | SCT055 BKN070 | 61 | 37.9 | 43% | 29.65 | 1004.2 | |||||||
| 09 | 12:53 | W 18 G 25 | 10.00 | Mostly Cloudy | BKN070 | 61 | 34 | 63 | 51.1 | 36% | 29.62 | 1003.0 | |||||
| 09 | 11:53 | W 14 | 10.00 | Partly Cloudy | SCT070 | 61 | 33.1 | 35% | 29.62 | 1003.1 | |||||||
| 09 | 10:53 | NW 9 | 10.00 | Overcast | OVC085 | 57 | 33.1 | 41% | 29.62 | 1003.0 | |||||||
| 09 | 09:53 | W 10 | 10.00 | Overcast | OVC095 | 55.9 | 34 | 44% | 29.61 | 1002.9 | |||||||
| 09 | 08:53 | NW 8 | 10.00 | Mostly Cloudy | FEW080 SCT090 BKN110 | 53.1 | 34 | 48% | 29.6 | 1002.3 | |||||||
| 09 | 07:53 | W 9 | 10.00 | Fair | CLR | 52 | 34 | 50% | 29.58 | 1001.9 | |||||||
| 09 | 06:53 | W 7 | 10.00 | Fair | CLR | 51.1 | 33.1 | 54 | 48.9 | 50% | 29.57 | 1001.2 | |||||
| 09 | 05:53 | W 9 | 10.00 | Fair | CLR | 52 | 33.1 | 49% | 29.54 | 1000.5 | |||||||
| 09 | 04:53 | SW 10 | 10.00 | Fair | CLR | 53.1 | 39 | 59% | 29.52 | 999.7 | |||||||
| 09 | 03:53 | SW 12 | 10.00 | Fair | CLR | 53.1 | 42.1 | 66% | 29.52 | 999.7 | |||||||
| 09 | 02:53 | SW 10 | 10.00 | Fair | CLR | 54 | 41 | 62% | 29.52 | 999.4 | |||||||
| 09 | 01:53 | S 7 | 10.00 | Fair | CLR | 50 | 39.9 | 68% | 48 | 29.53 | 1000.1 | ||||||
| 09 | 00:53 | S 9 | 10.00 | Mostly Cloudy | FEW080 BKN100 | 53.1 | 39.9 | 64.9 | 48 | 61% | 29.56 | 1000.9 | |||||
| 08 | 23:53 | S 14 G 18 | 10.00 | Light Rain | FEW055 FEW070 BKN100 | 51.1 | 37.9 | 61% | 29.59 | 1002.1 | |||||||
| 08 | 22:53 | SE 3 | 10.00 | Partly Cloudy | SCT110 | 53.1 | 34 | 48% | 29.6 | 1002.4 | |||||||
| 08 | 21:53 | Calm | 10.00 | Mostly Cloudy | BKN110 | 55.9 | 32 | 40% | 29.61 | 1002.9 | |||||||
| 08 | 20:53 | SW 12 G 23 | 10.00 | Overcast | BKN100 OVC120 | 64 | 27 | 25% | 29.63 | 1003.2 | |||||||
| 08 | 19:53 | SW 6 | 10.00 | Overcast | OVC110 | 60.1 | 32 | 35% | 29.62 | 1003.0 | |||||||
| 08 | 18:53 | SW 7 | 10.00 | Partly Cloudy | SCT110 | 64 | 27 | 66.9 | 63 | 25% | 29.63 | 1003.4 | |||||
| 08 | 17:53 | SW 10 | 10.00 | Partly Cloudy | SCT110 | 66 | 27 | 23% | 29.64 | 1003.8 | |||||||
| 08 | 16:53 | SW 13 G 18 | 10.00 | Mostly Cloudy | BKN100 | 64.9 | 25 | 22% | 29.66 | 1004.5 | |||||||
| 08 | 15:53 | W 10 | 10.00 | Mostly Cloudy | BKN110 | 64.9 | 24.1 | 21% | 29.67 | 1005.0 | |||||||
| 08 | 14:53 | W 14 G 23 | 10.00 | Mostly Cloudy | BKN100 | 66 | 25 | 21% | 29.7 | 1005.9 | |||||||
| 08 | 13:53 | W 9 G 20 | 10.00 | A Few Clouds | FEW100 | 64.9 | 26.1 | 23% | 29.72 | 1006.7 | |||||||
| 08 | 12:53 | SW 10 | 10.00 | Fair | CLR | 64 | 25 | 64.9 | 39 | 23% | 29.74 | 1007.3 | |||||
| 08 | 11:53 | W 12 G 24 | 10.00 | Fair | CLR | 62.1 | 27 | 26% | 29.77 | 1008.5 | |||||||
| 08 | 10:53 | SW 14 G 22 | 10.00 | Fair | CLR | 59 | 28.9 | 32% | 29.8 | 1009.3 | |||||||
| 08 | 09:53 | S 15 | 10.00 | Fair | CLR | 55.9 | 33.1 | 42% | 29.81 | 1009.7 | |||||||
| 08 | 08:53 | SW 10 | 10.00 | Fair | CLR | 53.1 | 36 | 52% | 29.81 | 1009.9 | |||||||
| 08 | 07:53 | SW 9 | 10.00 | Fair | CLR | 48 | 37 | 66% | 44 | 29.82 | 1010.0 | ||||||
| 08 | 06:53 | S 5 | 10.00 | Fair | CLR | 39 | 35.1 | 39 | 30.9 | 86% | 36 | 29.82 | 1010.2 | ||||
| 08 | 05:53 | SW 8 | 10.00 | Fair | CLR | 35.1 | 32 | 89% | 29 | 29.82 | 1010.2 | ||||||
| 08 | 04:53 | S 5 | 10.00 | Fair | CLR | 32 | 28 | 85% | 28 | 29.82 | 1010.5 | ||||||
| 08 | 03:53 | SE 5 | 10.00 | Fair | CLR | 33.1 | 28 | 82% | 29 | 29.83 | 1010.7 | ||||||
| 08 | 02:53 | S 7 | 10.00 | Fair | CLR | 34 | 28 | 79% | 29 | 29.84 | 1010.9 | ||||||
| 08 | 01:53 | S 5 | 10.00 | Fair | CLR | 34 | 28 | 79% | 30 | 29.86 | 1011.6 | ||||||
| 08 | 00:53 | S 5 | 10.00 | Fair | CLR | 36 | 28 | 52 | 34 | 73% | 33 | 29.87 | 1012.0 | ||||
| 07 | 23:53 | S 6 | 10.00 | Fair | CLR | 36 | 28 | 73% | 32 | 29.87 | 1012.1 | ||||||
| 07 | 22:53 | S 7 | 10.00 | Fair | CLR | 37 | 30 | 76% | 32 | 29.87 | 1012.0 | ||||||
| 07 | 21:53 | SE 6 | 10.00 | Fair | CLR | 37.9 | 30.9 | 76% | 34 | 29.87 | 1012.1 | ||||||
| 07 | 20:53 | SE 9 | 10.00 | Mostly Cloudy | BKN085 | 43 | 33.1 | 68% | 38 | 29.85 | 1011.3 | ||||||
| 07 | 19:53 | SE 6 | 10.00 | Overcast | OVC080 | 48 | 34 | 58% | 46 | 29.82 | 1010.3 | ||||||
| 07 | 18:53 | NE 7 | 10.00 | Mostly Cloudy | BKN080 | 52 | 34 | 55.9 | 48.9 | 50% | 29.81 | 1009.9 | |||||
| 07 | 17:53 | N 10 | 10.00 | Partly Cloudy | SCT075 | 53.1 | 30.9 | 43% | 29.81 | 1010.0 | |||||||
| 07 | 16:53 | Vrbl 6 | 10.00 | Overcast | SCT060 OVC085 | 55 | 32 | 42% | 29.81 | 1010.1 | |||||||
| 07 | 15:53 | SW 5 | 10.00 | Overcast | FEW048 BKN065 OVC090 | 53.1 | 30.9 | 43% | 29.82 | 1010.5 | |||||||
| 07 | 14:53 | Vrbl 3 | 10.00 | Overcast | OVC070 | 51.1 | 28.9 | 43% | 29.84 | 1011.1 | |||||||
| 07 | 13:53 | NW 7 | 10.00 | Overcast | BKN060 OVC080 | 50 | 28.9 | 44% | 48 | 29.86 | 1011.7 | ||||||
| 07 | 12:53 | W 9 G 16 | 10.00 | Mostly Cloudy | SCT060 BKN075 BKN090 | 48.9 | 28 | 48.9 | 36 | 44% | 45 | 29.88 | 1012.3 | ||||
| 07 | 11:53 | W 7 | 10.00 | Overcast | OVC065 | 46.9 | 26.1 | 44% | 44 | 29.9 | 1013.0 | ||||||
| Date | Time (cdt) | Wind (mph) | Vis. (mi.) | Weather | Sky Cond. | Air | Dwpt | Max. | Min. | Relative Humidity | Wind Chill (°F) | Heat Index (°F) | altimeter (in) | sea level (mb) | 1 hr | 3 hr | 6 hr |
| 6 hour | |||||||||||||||||
| Temperature (ºF) | Pressure | Precipitation (in) | |||||||||||||||